STARLINK-1863 (47150 NORAD) Tracking and Keplerian Element Data

This shows tracking and keplerian element data for the satellite.

Feedback or suggestion? Click here.




ElementValue
Catalog47150
NameSTARLINK-1863
Epoch Orbit1572
Epoch Day60.16668981
Epoch Year2021
RAAN246.9995
Inclination53.0615
Eccentricity0.0001457
Argument of Perigee81.574
Mean Anonmoly96.5556
Mean Motion15.10598374
Decay Rate-0.01127913
L11 47150U 20088AE 21060.16668981 -.01127913 00000-0 -73229-1 0 9999
L22 47150 53.0615 246.9995 0001457 81.5740 96.5556 15.10598374 15729

Live tracking and technical data element details for STARLINK-1863 (NORAD 47150). STARLINK-1863 can be tracked NOW for your location showing map with azimuth and elevation plus other details from your city location.

Track the satellite on the map from your city or location and see movement details for azimuth, elevation, latitude, longitude, range, height, and movement on the map or in text.







IsCatalogInMostPopularTable: catalog: 47150, numindb: 28
Update: records affected: 1



GetName: 47150 STARLINK-1863

Hit Count: updated at: Mon, 01 Mar 2021 21:37:08 GMT